K3BAK-13 Weather Reports


time (UTC)temp
C
wind
direction
speed
KPH
gust
KPH
rain 1hr
cm
rain 24hr
cm
rain mn
cm
humidity
%
barometer
mb
20260507231559 13 297 6.4 22.5 0.00 0.00 0.00 44 1011.8
20260507231100 13 212 3.2 22.5 0.00 0.00 0.00 43 1011.7
20260507230600 13 37 6.4 22.5 0.00 0.00 0.00 42 1011.7
20260507230106 14 127 4.8 16.1 0.00 0.00 0.00 43 1011.7
20260507225558 14 340 3.2 16.1 0.00 0.00 0.00 43 1011.7
20260507225058 14 282 4.8 16.1 0.00 0.00 0.00 42 1011.7
20260507224559 15 254 6.4 25.7 0.00 0.00 0.00 42 1011.6
20260507224101 14 276 6.4 25.7 0.00 0.00 0.00 42 1011.5
20260507223600 14 236 3.2 9.7 0.00 0.00 0.00 42 1011.5
20260507223101 14 283 4.8 14.5 0.00 0.00 0.00 42 1011.5
20260507222559 14 240 4.8 14.5 0.00 0.00 0.00 42 1011.5
20260507222059 14 315 4.8 16.1 0.00 0.00 0.00 41 1011.5
20260507221600 15 7 4.8 16.1 0.00 0.00 0.00 41 1011.4
20260507221059 15 265 6.4 16.1 0.00 0.00 0.00 40 1011.3
20260507220559 15 80 3.2 14.5 0.00 0.00 0.00 39 1011.2
20260507220059 15 219 6.4 14.5 0.00 0.00 0.00 41 1011.0
20260507215558 15 220 3.2 14.5 0.00 0.00 0.00 39 1011.0
20260507215100 16 39 4.8 12.9 0.00 0.00 0.00 42 1011.1
20260507214619 15 42 4.8 14.5 0.00 0.00 0.00 41 1011.1
20260507214103 15 214 4.8 19.3 0.00 0.00 0.00 39 1011.1
20260507213603 15 337 6.4 19.3 0.00 0.00 0.00 38 1011.1
20260507213108 15 297 6.4 12.9 0.00 0.00 0.00 37 1011.0
20260507212603 16 53 4.8 19.3 0.00 0.00 0.00 37 1010.8
20260507212102 16 197 6.4 20.9 0.00 0.00 0.00 39 1010.8
20260507211627 16 321 8.0 20.9 0.00 0.00 0.00 37 1010.8
20260507211058 16 292 4.8 16.1 0.00 0.00 0.00 39 1010.8
20260507210558 15 233 6.4 16.1 0.00 0.00 0.00 36 1010.7
20260507210100 16 293 4.8 14.5 0.00 0.00 0.00 38 1010.8
20260507205601 16 293 4.8 19.3 0.00 0.00 0.00 39 1010.7
20260507205058 15 278 4.8 19.3 0.00 0.00 0.00 39 1010.7
20260507204608 15 243 4.8 19.3 0.00 0.00 0.00 39 1010.6
20260507204103 15 267 3.2 14.5 0.00 0.00 0.00 41 1010.6
20260507203603 15 255 4.8 14.5 0.00 0.00 0.00 39 1010.7
20260507203102 15 252 4.8 14.5 0.00 0.00 0.00 39 1010.6
20260507202603 15 328 4.8 14.5 0.00 0.00 0.00 38 1010.8
20260507202105 15 319 4.8 14.5 0.00 0.00 0.00 39 1010.8
20260507201608 15 349 6.4 14.5 0.00 0.00 0.00 40 1010.8
20260507201102 15 300 1.6 8.0 0.00 0.00 0.00 41 1010.7
20260507200602 15 301 3.2 16.1 0.00 0.00 0.00 40 1010.7
20260507200059 15 236 3.2 17.7 0.00 0.00 0.00 41 1010.9
20260507195559 15 283 6.4 17.7 0.00 0.00 0.00 40 1010.9
20260507195105 15 34 4.8 12.9 0.00 0.00 0.00 43 1011.0
20260507194635 15 298 3.2 11.3 0.00 0.00 0.00 44 1011.0
20260507194059 15 243 3.2 11.3 0.00 0.00 0.00 43 1011.1
20260507193558 15 43 4.8 12.9 0.00 0.00 0.00 45 1011.2
20260507193100 15 283 4.8 17.7 0.00 0.00 0.00 45 1011.3
20260507192558 15 340 4.8 17.7 0.00 0.00 0.00 42 1011.3
20260507192058 15 257 4.8 14.5 0.00 0.00 0.00 42 1011.3
20260507191601 15 6 4.8 14.5 0.00 0.00 0.00 40 1011.3
20260507191103 15 259 4.8 11.3 0.00 0.00 0.00 44 1011.3
20260507190603 15 307 4.8 20.9 0.00 0.00 0.00 45 1011.2
20260507190101 15 309 4.8 20.9 0.00 0.00 0.00 44 1011.3
20260507185601 15 257 3.2 16.1 0.00 0.00 0.00 43 1011.3
20260507185105 15 245 4.8 19.3 0.00 0.00 0.00 44 1011.3
20260507184607 15 217 6.4 19.3 0.00 0.00 0.00 46 1011.3
20260507184058 15 330 4.8 16.1 0.00 0.00 0.00 47 1011.3
20260507183559 15 318 4.8 16.1 0.00 0.00 0.00 45 1011.5
20260507183058 14 276 4.8 12.9 0.00 0.00 0.00 46 1011.5
20260507182558 14 288 3.2 17.7 0.00 0.00 0.00 45 1011.5
20260507182059 15 231 3.2 17.7 0.00 0.00 0.00 43 1011.5
20260507181600 15 247 4.8 11.3 0.00 0.00 0.00 46 1011.5
20260507181058 14 213 1.6 19.3 0.00 0.00 0.00 47 1011.6
20260507180601 14 305 4.8 19.3 0.00 0.00 0.00 45 1011.6
20260507180106 14 306 3.2 9.7 0.00 0.00 0.00 47 1011.7
20260507175601 14 312 4.8 20.9 0.00 0.00 0.00 48 1011.7
20260507175059 14 236 3.2 20.9 0.00 0.00 0.00 48 1011.7
20260507174557 14 240 4.8 14.5 0.00 0.00 0.00 47 1012.0
20260507174057 14 284 6.4 14.5 0.00 0.00 0.00 49 1011.8
20260507173558 14 214 3.2 14.5 0.00 0.00 0.00 50 1012.0
20260507173100 14 286 3.2 14.5 0.00 0.00 0.00 47 1012.1
20260507172558 15 274 4.8 22.5 0.00 0.00 0.00 45 1012.2
20260507172057 14 302 4.8 22.5 0.00 0.00 0.00 48 1012.3
20260507171604 14 210 4.8 14.5 0.00 0.00 0.00 48 1012.3
20260507171058 14 288 4.8 12.9 0.00 0.00 0.00 47 1012.4
20260507170558 14 347 3.2 12.9 0.00 0.00 0.00 48 1012.5
20260507170057 13 275 3.2 12.9 0.00 0.00 0.00 54 1012.4
20260507165557 13 229 3.2 12.9 0.00 0.00 0.00 48 1012.4
20260507165058 13 206 4.8 8.0 0.00 0.00 0.00 48 1012.5
20260507164607 13 275 3.2 8.0 0.00 0.00 0.00 50 1012.6
20260507164101 13 330 4.8 14.5 0.00 0.00 0.00 50 1012.6
20260507163602 13 199 6.4 14.5 0.00 0.00 0.00 50 1012.7
20260507163103 13 240 1.6 12.9 0.00 0.00 0.00 51 1012.7
20260507162558 13 254 4.8 12.9 0.00 0.00 0.00 49 1012.8
20260507162058 12 314 3.2 6.4 0.00 0.00 0.00 52 1012.8
20260507161559 12 213 1.6 9.7 0.00 0.00 0.00 50 1012.9
20260507161058 12 106 3.2 12.9 0.00 0.00 0.00 49 1012.8
20260507160557 12 321 3.2 12.9 0.00 0.00 0.00 49 1013.0
20260507155557 12 234 3.2 9.7 0.00 0.00 0.00 51 1013.1
20260507155101 12 218 3.2 12.9 0.00 0.00 0.00 51 1013.1
20260507154607 12 321 4.8 12.9 0.00 0.00 0.00 51 1013.1
20260507154109 12 86 3.2 14.5 0.00 0.00 0.00 51 1013.1
20260507153604 12 233 1.6 14.5 0.00 0.00 0.00 53 1013.2
20260507153058 12 345 3.2 8.0 0.00 0.00 0.00 52 1013.2
20260507152559 12 20 3.2 6.4 0.00 0.00 0.00 52 1013.3
20260507152057 12 229 3.2 11.3 0.00 0.00 0.00 54 1013.3
20260507151603 12 221 1.6 11.3 0.00 0.00 0.00 53 1013.3
20260507151059 11 298 3.2 11.3 0.00 0.00 0.00 54 1013.4
20260507150602 11 266 3.2 12.9 0.00 0.00 0.00 52 1013.5
20260507150100 11 38 8.0 14.5 0.00 0.00 0.00 52 1013.5
20260507145558 11 247 6.4 14.5 0.00 0.03 0.00 54 1013.6
20260507145057 11 261 4.8 14.5 0.00 0.03 0.00 53 1013.6
20260507144603 11 244 3.2 14.5 0.00 0.03 0.00 54 1013.7
20260507144100 11 230 4.8 14.5 0.00 0.03 0.00 56 1013.7
20260507143603 11 295 1.6 9.7 0.00 0.03 0.00 58 1013.8
20260507143112 11 35 1.6 9.7 0.00 0.03 0.00 58 1013.9
20260507142559 11 205 4.8 8.0 0.00 0.03 0.00 58 1014.0
20260507142058 11 333 3.2 14.5 0.00 0.03 0.00 57 1014.0
20260507141601 11 285 4.8 14.5 0.00 0.03 0.00 59 1014.1
20260507141100 11 219 3.2 6.4 0.00 0.03 0.00 59 1014.2
20260507140557 11 263 1.6 6.4 0.00 0.03 0.00 58 1014.2
20260507140101 11 31 0.0 3.2 0.00 0.03 0.00 62 1014.4
20260507135559 10 236 0.0 8.0 0.00 0.08 0.00 61 1014.4
20260507135059 10 205 3.2 9.7 0.00 0.08 0.00 62 1014.4
20260507134600 10 264 1.6 9.7 0.00 0.08 0.00 62 1014.5
20260507134057 10 281 3.2 9.7 0.00 0.08 0.00 62 1014.5
20260507133557 10 248 3.2 9.7 0.00 0.08 0.00 62 1014.5
20260507133108 10 218 4.8 9.7 0.00 0.08 0.00 64 1014.5
20260507132600 10 174 3.2 6.4 0.00 0.08 0.00 63 1014.6
20260507132101 9 220 1.6 9.7 0.00 0.08 0.00 65 1014.6
20260507131615 9 181 0.0 9.7 0.00 0.08 0.00 66 1014.7
20260507131101 9 205 1.6 8.0 0.00 0.08 0.00 65 1014.6
20260507130601 8 208 3.2 12.9 0.00 0.08 0.00 67 1014.6
20260507130100 8 221 4.8 12.9 0.00 0.08 0.00 67 1014.5
20260507125559 8 0 1.6 4.8 0.00 0.15 0.00 69 1014.5
20260507125058 8 13 0.0 4.8 0.00 0.15 0.00 71 1014.5
20260507124606 7 225 0.0 4.8 0.00 0.15 0.00 74 1014.4
20260507124059 7 0 0.0 4.8 0.00 0.15 0.00 75 1014.6
20260507123559 7 221 0.0 4.8 0.00 0.15 0.00 77 1014.4
20260507123100 7 0 0.0 0.0 0.00 0.15 0.00 82 1014.4
20260507122558 6 0 0.0 0.0 0.00 0.15 0.00 84 1014.6
20260507122102 6 0 0.0 0.0 0.00 0.15 0.00 89 1014.6
20260507121601 5 0 0.0 0.0 0.00 0.15 0.00 93 1014.6
20260507121102 5 0 0.0 0.0 0.00 0.15 0.00 94 1014.5
20260507120558 5 0 0.0 0.0 0.00 0.15 0.00 95 1014.5
20260507120100 4 0 0.0 0.0 0.00 0.15 0.00 95 1014.6
20260507115558 4 0 0.0 0.0 0.00 0.23 0.00 95 1014.5
20260507115059 3 0 0.0 0.0 0.00 0.23 0.00 94 1014.5
20260507114607 3 0 0.0 0.0 0.00 0.23 0.00 94 1014.5
20260507114059 3 0 0.0 0.0 0.00 0.23 0.00 94 1014.5
20260507113558 2 0 0.0 0.0 0.00 0.23 0.00 94 1014.4
20260507113103 2 0 0.0 0.0 0.00 0.23 0.00 94 1014.4
20260507112600 2 0 0.0 0.0 0.00 0.23 0.00 94 1014.2
20260507112100 2 0 0.0 0.0 0.00 0.23 0.00 94 1014.3
20260507111603 2 0 0.0 0.0 0.00 0.23 0.00 93 1014.2
20260507111057 2 0 0.0 0.0 0.00 0.23 0.00 93 1014.2
20260507110557 2 0 0.0 0.0 0.00 0.23 0.00 93 1014.3
20260507105557 2 0 0.0 0.0 0.00 0.51 0.00 93 1014.2
20260507105101 2 0 0.0 0.0 0.00 0.51 0.00 93 1014.2
20260507104600 2 0 0.0 0.0 0.00 0.51 0.00 93 1014.0
20260507104100 2 0 0.0 0.0 0.00 0.51 0.00 93 1014.0
20260507103559 2 0 0.0 0.0 0.00 0.51 0.00 92 1013.9
20260507103058 2 0 0.0 0.0 0.00 0.51 0.00 92 1013.9
20260507102602 2 0 0.0 0.0 0.00 0.51 0.00 92 1013.8
20260507102102 2 0 0.0 0.0 0.00 0.51 0.00 92 1013.8
20260507101601 2 0 0.0 0.0 0.00 0.51 0.00 92 1013.8
20260507101057 2 0 0.0 0.0 0.00 0.51 0.00 92 1013.8
20260507100557 2 0 0.0 0.0 0.00 0.51 0.00 92 1013.8
20260507095558 2 0 0.0 0.0 0.00 0.76 0.00 91 1013.8
20260507095058 2 0 0.0 0.0 0.00 0.76 0.00 91 1013.7
20260507094558 2 0 0.0 0.0 0.00 0.76 0.00 91 1013.7
20260507094103 2 0 0.0 0.0 0.00 0.76 0.00 91 1013.6
20260507093600 2 0 0.0 0.0 0.00 0.76 0.00 91 1013.7
20260507093101 2 0 0.0 0.0 0.00 0.76 0.00 91 1013.7
20260507092557 2 0 0.0 0.0 0.00 0.76 0.00 90 1013.8
20260507092057 3 0 0.0 0.0 0.00 0.76 0.00 90 1013.8
20260507091601 3 0 0.0 0.0 0.00 0.76 0.00 90 1013.8
20260507091104 3 0 0.0 0.0 0.00 0.76 0.00 89 1014.0
20260507090557 3 0 0.0 0.0 0.00 0.76 0.00 89 1014.0
20260507090101 3 0 0.0 0.0 0.00 0.76 0.00 90 1014.0
20260507085600 3 0 0.0 0.0 0.00 1.07 0.00 89 1014.0
20260507085100 3 0 0.0 0.0 0.00 1.07 0.00 88 1014.0
20260507084602 3 0 0.0 0.0 0.00 1.07 0.00 89 1014.0
20260507084057 3 0 0.0 0.0 0.00 1.07 0.00 88 1013.9
20260507083558 3 0 0.0 0.0 0.00 1.07 0.00 88 1013.9
20260507083102 3 0 0.0 0.0 0.00 1.07 0.00 88 1013.9
20260507082559 3 0 0.0 0.0 0.00 1.07 0.00 87 1013.9
20260507082102 4 0 0.0 0.0 0.00 1.07 0.00 87 1014.0
20260507081605 4 0 0.0 0.0 0.00 1.07 0.00 86 1014.0
20260507081058 4 0 0.0 0.0 0.00 1.07 0.00 86 1014.0
20260507080601 4 0 0.0 0.0 0.00 1.07 0.00 86 1014.0
20260507080117 4 0 0.0 0.0 0.00 1.07 0.00 85 1013.9
20260507075557 4 0 0.0 0.0 0.00 1.09 0.00 84 1013.9
20260507075100 5 0 0.0 0.0 0.00 1.09 0.00 84 1014.0
20260507074602 5 0 0.0 0.0 0.00 1.09 0.00 84 1013.9
20260507074100 5 0 0.0 0.0 0.00 1.09 0.00 83 1014.0
20260507073603 5 0 0.0 0.0 0.00 1.09 0.00 82 1014.1
20260507073104 5 0 0.0 0.0 0.00 1.09 0.00 82 1014.0
20260507072601 5 0 0.0 0.0 0.00 1.09 0.00 82 1013.9
20260507072059 5 0 0.0 0.0 0.00 1.09 0.00 81 1014.0
20260507071612 5 0 0.0 0.0 0.00 1.09 0.00 80 1014.1
20260507071100 6 0 0.0 0.0 0.00 1.09 0.00 80 1014.1
20260507070558 6 0 0.0 0.0 0.00 1.09 0.00 79 1014.0
20260507065558 6 0 0.0 0.0 0.00 1.19 0.00 77 1014.1
20260507065057 6 0 0.0 0.0 0.00 1.19 0.00 76 1014.1
20260507064600 7 0 0.0 0.0 0.00 1.19 0.00 75 1014.1
20260507064059 7 0 0.0 0.0 0.00 1.19 0.00 75 1014.2
20260507063558 7 0 0.0 0.0 0.00 1.19 0.00 74 1014.2
20260507063104 7 0 0.0 0.0 0.00 1.19 0.00 74 1014.2
20260507062559 7 0 0.0 0.0 0.00 1.19 0.00 73 1014.1
20260507062100 8 0 0.0 0.0 0.00 1.19 0.00 73 1014.1
20260507061602 8 0 0.0 0.0 0.00 1.19 0.00 73 1014.1
20260507061059 8 0 0.0 0.0 0.00 1.19 0.00 72 1014.0
20260507060559 8 0 0.0 0.0 0.00 1.19 0.00 72 1014.2
20260507060100 8 0 0.0 0.0 0.00 1.19 0.00 70 1014.3
20260507055600 8 0 0.0 0.0 0.00 1.27 0.00 71 1014.3
20260507055100 8 0 0.0 1.6 0.00 1.27 0.00 71 1014.3
20260507054603 8 0 0.0 1.6 0.00 1.27 0.00 69 1014.4
20260507054100 8 0 0.0 1.6 0.00 1.27 0.00 69 1014.5
20260507053600 8 0 0.0 0.0 0.00 1.27 0.00 69 1014.5
20260507053127 8 0 0.0 1.6 0.00 1.27 0.00 69 1014.6
20260507052559 8 0 0.0 1.6 0.00 1.27 0.00 68 1014.7
20260507052059 8 0 0.0 0.0 0.00 1.27 0.00 68 1014.7
20260507051605 8 0 0.0 3.2 0.00 1.27 0.00 68 1014.9
20260507051059 8 0 0.0 3.2 0.00 1.27 0.00 67 1014.8
20260507050559 8 0 0.0 3.2 0.00 1.27 0.00 67 1014.9
20260507050108 8 0 0.0 1.6 0.00 1.27 0.00 67 1014.8
20260507045600 8 0 0.0 0.0 0.00 1.32 0.00 69 1014.7
20260507045059 8 0 0.0 0.0 0.00 1.32 0.00 68 1014.7
20260507044559 8 0 0.0 0.0 0.00 1.32 0.00 69 1014.7
20260507044100 8 0 0.0 1.6 0.00 1.32 0.00 69 1014.7
20260507043559 8 0 0.0 1.6 0.00 1.32 0.00 68 1014.7
20260507043101 9 0 0.0 1.6 0.00 1.32 0.00 69 1014.6
20260507042600 9 0 0.0 1.6 0.00 1.32 0.00 69 1014.8
20260507042103 9 0 0.0 0.0 0.00 1.32 0.00 71 1014.7
20260507041559 9 0 0.0 0.0 0.00 1.32 0.00 69 1014.7
20260507041103 9 0 0.0 0.0 0.00 1.32 0.00 69 1014.7
20260507040600 9 0 0.0 0.0 0.00 1.32 0.00 70 1014.6
20260507040115 9 0 0.0 1.6 0.00 1.32 0.00 70 1014.7
20260507035559 9 0 0.0 1.6 0.00 1.32 1.32 68 1014.6
20260507035059 9 0 0.0 1.6 0.00 1.32 1.32 68 1014.6
20260507034600 9 0 0.0 1.6 0.00 1.32 1.32 67 1014.4
20260507034059 9 0 0.0 1.6 0.00 1.32 1.32 68 1014.5
20260507033600 9 14 0.0 1.6 0.00 1.32 1.32 68 1014.6
20260507033101 9 0 0.0 1.6 0.00 1.32 1.32 68 1014.6
20260507032559 9 0 0.0 1.6 0.00 1.32 1.32 68 1014.6
20260507032059 9 0 0.0 1.6 0.00 1.32 1.32 68 1014.5
20260507031600 10 0 0.0 1.6 0.00 1.32 1.32 68 1014.3
20260507031059 10 0 0.0 0.0 0.00 1.32 1.32 68 1014.2
20260507030559 10 42 0.0 1.6 0.00 1.32 1.32 67 1014.2
20260507030100 10 0 0.0 1.6 0.00 1.32 1.32 66 1014.1
20260507025559 10 0 0.0 1.6 0.00 1.32 1.32 66 1014.2
20260507025059 10 0 0.0 1.6 0.00 1.32 1.32 67 1014.1
20260507024605 10 0 0.0 0.0 0.00 1.32 1.32 66 1014.1
20260507024058 10 0 0.0 0.0 0.00 1.32 1.32 66 1014.2
20260507023559 10 0 0.0 1.6 0.00 1.32 1.32 66 1014.1
20260507023100 10 0 0.0 1.6 0.00 1.32 1.32 65 1014.1
20260507022559 10 0 0.0 1.6 0.00 1.32 1.32 65 1014.2
20260507022058 10 0 0.0 6.4 0.00 1.32 1.32 65 1014.1
20260507021600 10 0 0.0 6.4 0.00 1.32 1.32 65 1014.1
20260507021100 10 25 0.0 6.4 0.00 1.32 1.32 63 1013.7
20260507020604 10 0 0.0 1.6 0.00 1.32 1.32 64 1013.8
20260507020100 10 195 0.0 1.6 0.00 1.32 1.32 64 1013.8
20260507015559 10 194 0.0 1.6 0.00 1.32 1.32 64 1013.7
20260507015059 10 218 0.0 3.2 0.00 1.32 1.32 64 1013.7
20260507014621 10 191 0.0 3.2 0.00 1.32 1.32 64 1013.6
20260507014059 10 200 0.0 3.2 0.00 1.32 1.32 64 1013.5
20260507013603 10 224 0.0 3.2 0.00 1.32 1.32 65 1013.6
20260507013059 10 0 0.0 3.2 0.00 1.32 1.32 66 1013.4
20260507012559 10 25 0.0 1.6 0.00 1.32 1.32 65 1013.4
20260507012059 10 68 0.0 6.4 0.00 1.32 1.32 65 1013.3
20260507011604 10 0 1.6 6.4 0.00 1.32 1.32 64 1013.2
20260507011058 11 360 0.0 3.2 0.00 1.32 1.32 66 1013.2
20260507010559 11 0 1.6 6.4 0.00 1.32 1.32 65 1013.2
20260507010112 11 0 0.0 6.4 0.00 1.32 1.32 66 1013.1
20260507005559 11 0 0.0 6.4 0.00 1.32 1.32 65 1013.3
20260507005059 11 4 0.0 4.8 0.00 1.32 1.32 67 1013.4
20260507004615 11 265 1.6 6.4 0.00 1.32 1.32 67 1013.5
20260507004059 11 0 0.0 6.4 0.00 1.32 1.32 67 1013.4
20260507003600 11 338 1.6 6.4 0.00 1.32 1.32 67 1013.6
20260507003102 11 0 1.6 8.0 0.00 1.32 1.32 66 1013.5
20260507002559 11 46 1.6 8.0 0.00 1.32 1.32 66 1013.6
20260507002059 11 229 1.6 4.8 0.00 1.32 1.32 66 1013.5
20260507001604 11 28 1.6 11.3 0.00 1.32 1.32 66 1013.5
20260507001059 11 252 3.2 11.3 0.00 1.32 1.32 67 1013.6
20260507000559 11 4 1.6 11.3 0.00 1.32 1.32 67 1013.6
20260507000059 11 359 3.2 11.3 0.00 1.32 1.32 67 1013.5
20260506235603 11 38 3.2 11.3 0.00 1.32 1.32 68 1013.3
20260506235100 11 273 1.6 11.3 0.00 1.32 1.32 69 1013.3
20260506234601 11 43 0.0 3.2 0.00 1.32 1.32 71 1013.4
20260506234100 11 13 0.0 3.2 0.00 1.32 1.32 73 1013.1
20260506233600 11 285 1.6 3.2 0.00 1.32 1.32 72 1013.1
20260506233059 12 0 0.0 3.2 0.00 1.32 1.32 72 1013.0
20260506232558 12 300 0.0 3.2 0.00 1.32 1.32 73 1013.0
20260506232059 12 33 1.6 9.7 0.00 1.32 1.32 73 1013.1